Regional Weather Roundup
Issued by NWS

Home | Current Version | Previous Version | Text Only | Print | Product List | Glossary Off
Versions: 1 2 3 4 5 6 7 8 9 10 11 12 13 14 15 16 17 18 19 20 21 22 23 24 25 26 27 28 29 30 31 32 33 34 35 36 37 38 39 40 41 42 43 44 45 46 47 48 49 50

920
ASUS43 KMPX 261801
RWRMN
WEATHER ROUNDUP FOR MINNESOTA
NATIONAL WEATHER SERVICE TWIN CITIES/CHANHASSEN MN
100 PM CDT FRI AUG 26 2016


NOTE: "FAIR" INDICATES FEW OR NO CLOUDS BELOW 12,000 FEET WITH NO
SIGNIFICANT WEATHER AND/OR OBSTRUCTIONS TO VISIBILITY. N/A MEANS
CURRENT SKY AND/OR WEATHER CONDITIONS ARE NOT AVAILABLE.

MNZ060>063-068>070-261900-
   Twin Cities Metro

CITY           SKY/WX    TMP DP  RH WIND       PRES   REMARKS
TWIN CITIES    CLOUDY    70  53  54 SE5       30.16F
6HR MIN TEMP:  57; 6HR MAX TEMP:  71;

ST PAUL        CLOUDY    69  55  60 SE6       30.16F
CRYSTAL        CLOUDY    70  49  47 S3        30.15F
BLAINE         CLOUDY    72  52  49 CALM      30.16F
LAKEVILLE      PTSUNNY   68  54  60 CALM      30.17F
EDEN PRAIRIE   CLOUDY    71  52  50 CALM      30.16F
6HR MIN TEMP:  55; 6HR MAX TEMP:  71;

LAKEVILLE      PTSUNNY   68  54  60 CALM      30.17F
SOUTH ST PAUL  CLOUDY    69  53  57 SE3       30.16F
LAKE ELMO      FAIR      68  55  64 S5        30.18F
$$
MNZ001>005-007-008-013>017-022>024-027-028-261900-
   Northwest Minnesota

CITY           SKY/WX    TMP DP  RH WIND       PRES   REMARKS
BEMIDJI        MOSUNNY   72  47  41 SW8       30.11S
HALLOCK        CLOUDY    73  50  43 S9        30.03S
ROSEAU         SUNNY     75  48  38 SW8       30.05S
WARROAD        SUNNY     72  54  53 S8        30.06F
THIEF RVR FALL SUNNY     74  48  39 SW12      30.09S
CROOKSTON      SUNNY     73  52  46 S14       30.08F
FOSSTON        SUNNY     72  48  43 SW10      30.11S
DETROIT LAKES  SUNNY     70  50  49 SW8       30.13F
MOORHEAD       SUNNY     73  52  46 SW7       30.10F
PARK RAPIDS    MOSUNNY   73  50  44 MISG      30.12F
MAHNOMEN       FAIR      71  50  47 SW12      30.11F
$$
MNZ006-009>011-018-025>026-261900-
   North Central Minnesota

CITY           SKY/WX    TMP DP  RH WIND       PRES   REMARKS
BAUDETTE       SUNNY     72  50  45 VRB5      30.07F
FLAG ISLAND    SUNNY     70  54  56 S5        30.04F
INTL FALLS     MOSUNNY   68  51  54 CALM      30.09F
6HR MIN TEMP:  41; 6HR MAX TEMP:  71;

WASKISH        SUNNY     72  52  49 SW8       30.09F
BIG FORK       MOSUNNY   72  50  46 SW5       30.11F
LONGVILLE      SUNNY     72  50  46 CALM      30.13S
GRAND RAPIDS   MOSUNNY   71  48  43 VRB5      30.14F
ORR            MOSUNNY   68  46  45 CALM      30.10S
COOK           MOSUNNY   70  48  46 SW7       30.13S
WALKER         FAIR      71  47  42 W8        30.12S
$$
MNZ012-019>021-037-261900-
   Northeast Minnesota

CITY           SKY/WX    TMP DP  RH WIND       PRES   REMARKS
DULUTH         MOSUNNY   72  49  44 N5        30.14F
6HR MIN TEMP:  53; 6HR MAX TEMP:  72;

ELY            MOSUNNY   68  46  45 CALM      30.13F
HIBBING        MOSUNNY   69  48  47 SW8       30.13F
EVELETH        MOSUNNY   66  46  47 W5        30.15S
DULUTH HARBOR  MOSUNNY   72  54  53 E7        30.14S
TWO HARBORS    MOSUNNY   72  57  60 CALM      30.13S
SILVER BAY     MOSUNNY   68  55  64 S9        30.13S
G MARAIS ARPRT PTSUNNY   64  48  55 S6        30.16S
$$
MNZ029>031-032-039>041-046>048-054>057-064-261900-
   West Central Minnesota

CITY           SKY/WX    TMP DP  RH WIND       PRES   REMARKS
FERGUS FALLS   SUNNY     72  54  53 S9        30.14F
WHEATON        SUNNY     73  54  49 S6        30.15F
MORRIS         SUNNY     72  52  49 CALM      30.14S
ALEXANDRIA     SUNNY     70  49  47 VRB6      30.16F
ELBOW LAKE     FAIR      70  53  54 W7        30.15S
WADENA         SUNNY     70  52  52 W7        30.13F
GLENWOOD       MOSUNNY   72  52  49 S5        30.16F
APPLETON       CLOUDY    72  52  49 S7        30.15S
BENSON         MOSUNNY   72  50  46 S6        30.16S
ORTONVILLE     CLOUDY    70  54  56 CALM      30.15S
MADISON        CLOUDY    70  54  56 S7        30.15F
WILLMAR        FAIR      70  55  60 SE5       30.17F
$$
MNZ033>034-036-042>043-049>051-058-059-261900-
   Central Minnesota

CITY           SKY/WX    TMP DP  RH WIND       PRES   REMARKS
ST CLOUD       CLOUDY    70  54  56 S6        30.15F
6HR MIN TEMP:  49; 6HR MAX TEMP:  70;

SAUK CENTRE    FAIR      71  52  52 SW5       30.16S
PAYNESVILLE    CLOUDY    71  53  53 S6        30.17S
AITKIN         MOSUNNY   72  48  43 W3        30.12F
PINE RIVER     SUNNY     72  52  49 W5        30.16S
BRAINERD       PTSUNNY   72  51  47 VRB6      30.14F
STAPLES        MOSUNNY   72  48  43 CALM      30.14S
LONG PRAIRIE   FAIR      70  52  52 SE6       30.16S
LITTLE FALLS   CLOUDY    70  46  43 W5        30.15F
LITCHFIELD     CLOUDY    72  54  53 CALM      30.17S
BUFFALO        CLOUDY    69  51  52 CALM      30.17F
MAPLE LAKE     CLOUDY    71  54  54 CALM      30.17F
HUTCHINSON     CLOUDY    69  57  65 SE5       30.18S
$$
MNZ037-044-045-052-053-261900-
   East Central Minnesota

CITY           SKY/WX    TMP DP  RH WIND       PRES   REMARKS
PRINCETON      CLOUDY    73  52  46 W5        30.16S
MORA           CLOUDY    68  50  52 S6        30.17F
CAMBRIDGE      CLOUDY    72  55  56 CALM      30.14F
RUSH CITY      PTSUNNY   69  54  58 SE5       30.16F
MOOSE LAKE     CLOUDY    70  52  52 SW5       30.13F
HINCKLEY       FAIR      70  55  60 S6        30.15F
CLOQUET        MOSUNNY   70  46  43 W6        30.14F
MCGREGOR       MOSUNNY   70  50  49 W5        30.14F
$$
MNZ071>073-080-081-089-090-097-098-261900-
   Southwest Minnesota

CITY           SKY/WX    TMP DP  RH WIND       PRES   REMARKS
MONTEVIDEO     CLOUDY    72  55  56 SW5       30.17F
GRANITE FALLS  CLOUDY    70  56  61 SE5       30.18S
CANBY          CLOUDY    71  55  57 SE3       30.16F
MARSHALL       MOSUNNY   68  55  63 SE5       30.16F
REDWOOD FALLS  MOSUNNY   68  53  58 S7        30.16F
OLIVIA         PTSUNNY   70  54  56 SE7       30.16S
PIPESTONE      MOSUNNY   68  54  60 S3        30.16F
WINDOM         PTSUNNY   68  54  60 CALM      30.17F
WORTHINGTON    CLOUDY    67  58  72 SE10      30.17F
JACKSON          N/A     68  54  60 SE6       30.18F
TRACY          PTSUNNY   69  56  63 S5        30.17S
$$
MNZ065>067-074>077-082>085-091>093-261900-
   South Central Minnesota

CITY           SKY/WX    TMP DP  RH WIND       PRES   REMARKS
MANKATO        CLOUDY    66  55  68 SE5       30.17F
NEW ULM          N/A     66  55  68 SE5       30.17S
ST JAMES       CLOUDY    63  52  67 CALM      30.18F
FAIRMONT       CLOUDY    67  55  65 SE3       30.17F
GLENCOE        PTSUNNY   70  58  66 SE3       30.17S
FARIBAULT      CLOUDY    70  55  60 CALM      30.18F
OWATONNA       CLOUDY    70  55  60 CALM      30.17F
WASECA         PTSUNNY   66  55  68 E5        30.19F
ALBERT LEA     CLOUDY    68  55  64 CALM      30.17F
$$
MNZ078>079-086>088-094>096-261900-
   Southeast Minnesota

CITY           SKY/WX    TMP DP  RH WIND       PRES   REMARKS
ROCHESTER      MOSUNNY   69  57  65 E5        30.18F
6HR MIN TEMP:  53; 6HR MAX TEMP:  69;

RED WING       CLOUDY    70  52  52 CALM      30.16F
STANTON        PTSUNNY   68  55  64 CALM      30.16F
DODGE CENTER   CLOUDY    73  54  49 CALM      30.18F
WINONA         CLOUDY    70  55  60 E3        30.17F
AUSTIN         CLOUDY    68  55  64 CALM      30.17F
PRESTON        CLOUDY    67  54  62 CALM      30.18F
$$
ABBREVIATIONS USED IN REMARKS
   TC - TEMPERATURES IN CELSIUS
  WCI - WIND CHILL INDEX
   HX - HEAT INDEX
  VSB - VISIBILITY
$$




USA.gov is the U.S. government's official web portal to all federal, state and local government web resources and services.